Location: Napa Soda Springs
(38.3907°N, 122.2794°W)
Time: 08:05:05
(UTC+00:00)

CZ-4B R/B - Pass Details

Date: 29 October 2020
Orbit: 388 x 461 km, 97.6° (Epoch: 03 December)

Event Time Altitude Azimuth Distance (km) Brightness Sun altitude
Rises 12:04:59 0° 133° (SE) 2,483 5.7 -29.5°
Reaches altitude 10° 12:07:28 10° 114° (ESE) 1,610 4.9 -29.0°
Maximum altitude 12:09:53 18° 70° (ENE) 1,196 4.2 -28.5°
Drops below altitude 10° 12:12:18 10° 25° (NNE) 1,606 4.5 -28.1°
Enters shadow 12:12:24 10° 24° (NNE) 1,635 4.5 -28.0°
